{"data":{"norad_id":52451,"intl_designator":"2022-049A","name":"STARLINK-3870","alt_names":[],"object_type":"PAYLOAD","status":"ACTIVE","operator":null,"country":"US","launch_date":"2022-05-06","launch_site_code":"AFETR","launch_vehicle":null,"mission":null,"orbit_class":"UNKNOWN","rcs_meters":null,"size_class":null,"mass_kg":null,"dimensions":null,"purposes":["comms"],"wikipedia_slug":null,"has_3d_model":false,"image_url":null,"decayed_at":null,"tle_current":{"epoch":"2026-05-25T04:08:01.325184Z","epoch_age_seconds":70753,"freshness":"FRESH","line1":"1 52451U 22049A   26145.17223756  .03688231  12127-4  57257-3 0  9992","line2":"2 52451  53.2033  56.5639 0010041 239.1897 120.8161 16.33080802224068","mean_motion":16.33080802,"eccentricity":0.0010041,"inclination_deg":53.2033,"raan_deg":56.5639,"arg_perigee_deg":239.1897,"mean_anomaly_deg":120.8161,"bstar":0.00057257,"rev_number":22406,"period_min":88.176898426365,"perigee_km":177.68416795517,"apogee_km":190.86280068979,"semimajor_km":6562.4104843225,"source":"CELESTRAK","updated_at":"2026-05-25T13:38:17.123573Z"}}}